Time,TemperatureF,DewpointF,PressureIn,WindDirection,WindDirectionDegrees,WindSpeedMPH,WindSpeedGustMPH,Humidity,HourlyPrecipIn,Conditions,Clouds,dailyrainin,SoftwareType,DateUTC
2013-02-14 00:01:00,61.0,58.0,30.10,NW,314,0.0,-999.0,90,-99.99,,,-99.99,,2013-02-14 10:01:00,
2013-02-14 00:11:00,60.0,57.0,30.10,NW,314,0.0,-999.0,90,-99.99,,,-99.99,,2013-02-14 10:11:00,
2013-02-14 00:21:00,60.0,57.0,30.10,NW,314,0.0,-999.0,90,-99.99,,,-99.99,,2013-02-14 10:21:00,
2013-02-14 00:31:00,60.0,57.0,30.10,NW,315,0.0,-999.0,90,-99.99,,,-99.99,,2013-02-14 10:31:00,
2013-02-14 00:41:00,60.0,57.0,30.10,NW,315,0.0,-999.0,90,-99.99,,,-99.99,,2013-02-14 10:41:00,
2013-02-14 00:52:00,61.0,58.0,30.10,NW,315,0.0,-999.0,89,-99.99,,,-99.99,,2013-02-14 10:52:00,
2013-02-14 01:01:00,61.0,58.0,30.10,NW,315,0.0,-999.0,90,-99.99,,,-99.99,,2013-02-14 11:01:00,
2013-02-14 01:11:00,61.0,58.0,30.09,NW,315,0.0,-999.0,91,-99.99,,,-99.99,,2013-02-14 11:11:00,
2013-02-14 01:21:00,61.0,58.0,30.09,NW,315,0.0,-999.0,91,-99.99,,,-99.99,,2013-02-14 11:21:00,
2013-02-14 01:31:00,61.0,58.0,30.09,NW,315,0.0,-999.0,91,-99.99,,,-99.99,,2013-02-14 11:31:00,
2013-02-14 01:42:00,61.0,58.0,30.09,NW,315,0.0,-999.0,91,-99.99,,,-99.99,,2013-02-14 11:42:00,
2013-02-14 01:52:00,61.0,58.0,30.09,NW,315,0.0,-999.0,91,-99.99,,,-99.99,,2013-02-14 11:52:00,
2013-02-14 02:01:00,61.0,58.0,30.09,NW,315,0.0,-999.0,91,-99.99,,,-99.99,,2013-02-14 12:01:00,
2013-02-14 02:11:00,61.0,58.0,30.09,NW,315,0.0,-999.0,91,-99.99,,,-99.99,,2013-02-14 12:11:00,
2013-02-14 02:21:00,61.0,58.0,30.07,NW,315,0.0,-999.0,91,-99.99,,,-99.99,,2013-02-14 12:21:00,
2013-02-14 02:31:00,60.0,57.0,30.07,NW,315,0.0,-999.0,91,-99.99,,,-99.99,,2013-02-14 12:31:00,
2013-02-14 02:42:00,60.0,57.0,30.07,NW,315,0.0,-999.0,91,-99.99,,,-99.99,,2013-02-14 12:42:00,
2013-02-14 02:53:00,60.0,57.0,30.07,NW,315,0.0,-999.0,91,-99.99,,,-99.99,,2013-02-14 12:53:00,
2013-02-14 03:01:00,60.0,58.0,30.07,NW,315,0.0,-999.0,92,-99.99,,,-99.99,,2013-02-14 13:01:00,
2013-02-14 03:11:00,60.0,58.0,30.07,NW,315,0.0,-999.0,92,-99.99,,,-99.99,,2013-02-14 13:11:00,
2013-02-14 03:21:00,61.0,59.0,30.06,NW,315,0.0,-999.0,92,-99.99,,,-99.99,,2013-02-14 13:21:00,
2013-02-14 03:31:00,60.0,58.0,30.06,NW,315,0.0,-999.0,92,-99.99,,,-99.99,,2013-02-14 13:31:00,
2013-02-14 03:41:00,60.0,58.0,30.06,NW,315,0.0,-999.0,92,-99.99,,,-99.99,,2013-02-14 13:41:00,
2013-02-14 03:51:00,60.0,58.0,30.06,NW,314,0.0,-999.0,92,-99.99,,,-99.99,,2013-02-14 13:51:00,
2013-02-14 04:01:00,60.0,58.0,30.06,NW,314,0.0,-999.0,92,-99.99,,,-99.99,,2013-02-14 14:01:00,
2013-02-14 04:11:00,60.0,58.0,30.06,NW,314,0.0,-999.0,92,-99.99,,,-99.99,,2013-02-14 14:11:00,
2013-02-14 04:21:00,60.0,58.0,30.06,NW,314,0.0,-999.0,92,-99.99,,,-99.99,,2013-02-14 14:21:00,
2013-02-14 04:31:00,60.0,58.0,30.06,NW,314,0.0,-999.0,92,-99.99,,,-99.99,,2013-02-14 14:31:00,
2013-02-14 04:41:00,60.0,58.0,30.06,NW,314,0.0,-999.0,92,-99.99,,,-99.99,,2013-02-14 14:41:00,
2013-02-14 04:52:00,60.0,58.0,30.06,NW,314,0.0,-999.0,92,-99.99,,,-99.99,,2013-02-14 14:52:00,
2013-02-14 05:01:00,59.0,56.0,30.06,NW,314,0.0,-999.0,91,-99.99,,,-99.99,,2013-02-14 15:01:00,
2013-02-14 05:11:00,59.0,56.0,30.06,NW,314,0.0,-999.0,91,-99.99,,,-99.99,,2013-02-14 15:11:00,
2013-02-14 05:21:00,59.0,57.0,30.06,NW,314,0.0,-999.0,92,-99.99,,,-99.99,,2013-02-14 15:21:00,
2013-02-14 05:31:00,59.0,57.0,30.06,NW,314,0.0,-999.0,92,-99.99,,,-99.99,,2013-02-14 15:31:00,
2013-02-14 05:41:00,59.0,57.0,30.06,NW,314,0.0,-999.0,92,-99.99,,,-99.99,,2013-02-14 15:41:00,
2013-02-14 05:51:00,59.0,57.0,30.06,NW,314,0.0,-999.0,92,-99.99,,,-99.99,,2013-02-14 15:51:00,
2013-02-14 06:01:00,59.0,57.0,30.06,NW,314,0.0,-999.0,93,-99.99,,,-99.99,,2013-02-14 16:01:00,
2013-02-14 06:11:00,59.0,57.0,30.06,NW,314,0.0,-999.0,93,-99.99,,,-99.99,,2013-02-14 16:11:00,
2013-02-14 06:21:00,59.0,57.0,30.06,NW,314,0.0,-999.0,93,-99.99,,,-99.99,,2013-02-14 16:21:00,
2013-02-14 06:31:00,59.0,57.0,30.07,NW,314,0.0,-999.0,93,-99.99,,,-99.99,,2013-02-14 16:31:00,
2013-02-14 06:41:00,59.0,57.0,30.07,NW,314,0.0,-999.0,93,-99.99,,,-99.99,,2013-02-14 16:41:00,
2013-02-14 06:51:00,60.0,58.0,30.08,NW,314,0.0,-999.0,92,-99.99,,,-99.99,,2013-02-14 16:51:00,
2013-02-14 07:01:00,60.0,58.0,30.08,NW,314,0.0,-999.0,93,-99.99,,,-99.99,,2013-02-14 17:01:00,
2013-02-14 07:11:00,60.0,58.0,30.09,NW,314,0.0,-999.0,93,-99.99,,,-99.99,,2013-02-14 17:11:00,
2013-02-14 07:21:00,60.0,58.0,30.09,NW,314,0.0,-999.0,93,-99.99,,,-99.99,,2013-02-14 17:21:00,
2013-02-14 07:31:00,60.0,58.0,30.09,NW,314,0.0,-999.0,93,-99.99,,,-99.99,,2013-02-14 17:31:00,
2013-02-14 07:41:00,60.0,58.0,30.09,NW,314,0.0,-999.0,93,-99.99,,,-99.99,,2013-02-14 17:41:00,
2013-02-14 07:52:00,60.0,58.0,30.09,NW,314,0.0,-999.0,93,-99.99,,,-99.99,,2013-02-14 17:52:00,
2013-02-14 08:01:00,60.0,58.0,30.09,NW,314,0.0,-999.0,92,-99.99,,,-99.99,,2013-02-14 18:01:00,
2013-02-14 08:11:00,60.0,58.0,30.09,NW,314,0.0,-999.0,92,-99.99,,,-99.99,,2013-02-14 18:11:00,
2013-02-14 08:22:00,61.0,59.0,30.10,NW,314,0.0,-999.0,92,-99.99,,,-99.99,,2013-02-14 18:22:00,
2013-02-14 08:31:00,61.0,59.0,30.10,NW,314,0.0,-999.0,92,-99.99,,,-99.99,,2013-02-14 18:31:00,
2013-02-14 08:41:00,61.0,59.0,30.10,NW,314,0.0,-999.0,92,-99.99,,,-99.99,,2013-02-14 18:41:00,
2013-02-14 08:51:00,63.0,61.0,30.11,NW,319,0.0,-999.0,92,-99.99,,,-99.99,,2013-02-14 18:51:00,
2013-02-14 09:01:00,63.0,60.0,30.11,NW,319,0.0,-999.0,91,-99.99,,,-99.99,,2013-02-14 19:01:00,
2013-02-14 09:11:00,63.0,60.0,30.11,NW,319,0.0,-999.0,91,-99.99,,,-99.99,,2013-02-14 19:11:00,
2013-02-14 09:21:00,65.0,62.0,30.11,NW,319,0.0,-999.0,89,-99.99,,,-99.99,,2013-02-14 19:21:00,
2013-02-14 09:31:00,65.0,62.0,30.11,NW,319,0.0,-999.0,89,-99.99,,,-99.99,,2013-02-14 19:31:00,
2013-02-14 09:41:00,65.0,62.0,30.11,NW,319,0.0,-999.0,89,-99.99,,,-99.99,,2013-02-14 19:41:00,
2013-02-14 09:51:00,67.0,62.0,30.11,NW,319,0.0,-999.0,85,-99.99,,,-99.99,,2013-02-14 19:51:00,
2013-02-14 10:01:00,68.0,62.0,30.12,NW,319,0.0,-999.0,81,-99.99,,,-99.99,,2013-02-14 20:01:00,
2013-02-14 10:11:00,70.0,63.0,30.11,North,350,1.0,-999.0,78,-99.99,,,-99.99,,2013-02-14 20:11:00,
2013-02-14 10:21:00,70.0,63.0,30.11,North,350,1.0,-999.0,78,-99.99,,,-99.99,,2013-02-14 20:21:00,
2013-02-14 10:31:00,72.0,63.0,30.11,NW,321,0.0,-999.0,73,-99.99,,,-99.99,,2013-02-14 20:31:00,
2013-02-14 10:41:00,72.0,63.0,30.11,NW,321,0.0,-999.0,73,-99.99,,,-99.99,,2013-02-14 20:41:00,
2013-02-14 10:52:00,72.0,61.0,30.11,North,355,0.0,-999.0,69,-99.99,,,-99.99,,2013-02-14 20:52:00,
2013-02-14 11:01:00,72.0,62.0,30.11,North,11,0.0,-999.0,70,-99.99,,,-99.99,,2013-02-14 21:01:00,
2013-02-14 11:11:00,72.0,62.0,30.11,North,11,0.0,-999.0,70,-99.99,,,-99.99,,2013-02-14 21:11:00,
2013-02-14 11:21:00,72.0,61.0,30.11,NNE,32,1.0,-999.0,68,-99.99,,,-99.99,,2013-02-14 21:21:00,
2013-02-14 11:31:00,73.0,62.0,30.10,North,360,1.0,-999.0,68,-99.99,,,-99.99,,2013-02-14 21:31:00,
2013-02-14 11:41:00,73.0,62.0,30.10,North,360,1.0,-999.0,68,-99.99,,,-99.99,,2013-02-14 21:41:00,
2013-02-14 11:51:00,71.0,61.0,30.10,NNE,23,5.0,-999.0,71,-99.99,,,-99.99,,2013-02-14 21:51:00,
2013-02-14 12:02:00,71.0,61.0,30.10,NNE,23,5.0,-999.0,71,-99.99,,,-99.99,,2013-02-14 22:02:00,
2013-02-14 12:11:00,72.0,62.0,30.09,NNW,348,1.0,-999.0,70,-99.99,,,-99.99,,2013-02-14 22:11:00,
2013-02-14 12:21:00,72.0,62.0,30.09,NNW,348,1.0,-999.0,70,-99.99,,,-99.99,,2013-02-14 22:21:00,
2013-02-14 12:31:00,74.0,61.0,30.09,NNW,333,1.0,-999.0,65,-99.99,,,-99.99,,2013-02-14 22:31:00,
2013-02-14 12:41:00,74.0,61.0,30.09,NNW,333,1.0,-999.0,65,-99.99,,,-99.99,,2013-02-14 22:41:00,
2013-02-14 12:51:00,74.0,61.0,30.08,WNW,295,1.0,-999.0,63,-99.99,,,-99.99,,2013-02-14 22:51:00,
2013-02-14 13:01:00,72.0,60.0,30.07,NNE,33,2.0,-999.0,65,-99.99,,,-99.99,,2013-02-14 23:01:00,
2013-02-14 13:11:00,72.0,60.0,30.07,NNE,33,2.0,-999.0,65,-99.99,,,-99.99,,2013-02-14 23:11:00,
2013-02-14 13:21:00,73.0,60.0,30.06,NNE,15,3.0,-999.0,64,-99.99,,,-99.99,,2013-02-14 23:21:00,
2013-02-14 13:31:00,71.0,60.0,30.06,NNE,18,3.0,-999.0,68,-99.99,,,-99.99,,2013-02-14 23:31:00,
2013-02-14 13:41:00,71.0,60.0,30.06,NNE,18,3.0,-999.0,68,-99.99,,,-99.99,,2013-02-14 23:41:00,
2013-02-14 13:52:00,72.0,62.0,30.05,NNE,23,4.0,-999.0,70,-99.99,,,-99.99,,2013-02-14 23:52:00,
2013-02-14 14:01:00,72.0,60.0,30.04,ENE,59,2.0,-999.0,66,-99.99,,,-99.99,,2013-02-15 00:01:00,
2013-02-14 14:11:00,72.0,60.0,30.04,ENE,59,2.0,-999.0,66,-99.99,,,-99.99,,2013-02-15 00:11:00,
2013-02-14 14:21:00,71.0,58.0,30.04,NE,49,4.0,-999.0,64,-99.99,,,-99.99,,2013-02-15 00:21:00,
2013-02-14 14:31:00,73.0,59.0,30.03,North,360,3.0,-999.0,61,-99.99,,,-99.99,,2013-02-15 00:31:00,
2013-02-14 14:41:00,73.0,59.0,30.03,North,360,3.0,-999.0,61,-99.99,,,-99.99,,2013-02-15 00:41:00,
2013-02-14 14:51:00,72.0,59.0,30.03,North,355,5.0,-999.0,64,-99.99,,,-99.99,,2013-02-15 00:51:00,
2013-02-14 15:01:00,72.0,58.0,30.02,NE,54,3.0,-999.0,62,-99.99,,,-99.99,,2013-02-15 01:01:00,
2013-02-14 15:11:00,72.0,58.0,30.02,NE,54,3.0,-999.0,62,-99.99,,,-99.99,,2013-02-15 01:11:00,
2013-02-14 15:21:00,72.0,61.0,30.02,NNE,29,3.0,-999.0,69,-99.99,,,-99.99,,2013-02-15 01:21:00,
2013-02-14 15:31:00,72.0,61.0,30.02,NNW,339,4.0,-999.0,68,-99.99,,,-99.99,,2013-02-15 01:31:00,
2013-02-14 15:41:00,72.0,61.0,30.02,NNW,339,4.0,-999.0,68,-99.99,,,-99.99,,2013-02-15 01:41:00,
2013-02-14 15:51:00,72.0,61.0,30.01,ENE,63,3.0,-999.0,69,-99.99,,,-99.99,,2013-02-15 01:51:00,
2013-02-14 16:01:00,73.0,60.0,30.01,NNE,18,2.0,-999.0,63,-99.99,,,-99.99,,2013-02-15 02:01:00,
2013-02-14 16:11:00,73.0,60.0,30.01,NNE,18,2.0,-999.0,63,-99.99,,,-99.99,,2013-02-15 02:11:00,
2013-02-14 16:21:00,71.0,59.0,30.01,NNE,30,1.0,-999.0,67,-99.99,,,-99.99,,2013-02-15 02:21:00,
2013-02-14 16:31:00,72.0,59.0,30.01,NNE,26,3.0,-999.0,64,-99.99,,,-99.99,,2013-02-15 02:31:00,
2013-02-14 16:41:00,72.0,59.0,30.01,NNE,26,3.0,-999.0,64,-99.99,,,-99.99,,2013-02-15 02:41:00,
2013-02-14 16:52:00,71.0,59.0,30.01,NNE,14,2.0,-999.0,65,-99.99,,,-99.99,,2013-02-15 02:52:00,
2013-02-14 17:01:00,70.0,58.0,30.01,NNE,25,1.0,-999.0,65,-99.99,,,-99.99,,2013-02-15 03:01:00,
2013-02-14 17:11:00,70.0,58.0,30.01,NNE,25,1.0,-999.0,65,-99.99,,,-99.99,,2013-02-15 03:11:00,
2013-02-14 17:21:00,70.0,59.0,30.02,NE,34,1.0,-999.0,67,-99.99,,,-99.99,,2013-02-15 03:21:00,
2013-02-14 17:32:00,69.0,58.0,30.02,NNW,342,1.0,-999.0,68,-99.99,,,-99.99,,2013-02-15 03:32:00,
2013-02-14 17:41:00,69.0,58.0,30.02,NNW,342,1.0,-999.0,68,-99.99,,,-99.99,,2013-02-15 03:41:00,
2013-02-14 17:51:00,69.0,58.0,30.03,NE,52,1.0,-999.0,68,-99.99,,,-99.99,,2013-02-15 03:51:00,
2013-02-14 18:01:00,69.0,59.0,30.03,NNE,17,2.0,-999.0,71,-99.99,,,-99.99,,2013-02-15 04:01:00,
2013-02-14 18:11:00,69.0,59.0,30.03,NNE,17,2.0,-999.0,71,-99.99,,,-99.99,,2013-02-15 04:11:00,
2013-02-14 18:21:00,68.0,58.0,30.03,NNE,13,1.0,-999.0,71,-99.99,,,-99.99,,2013-02-15 04:21:00,
2013-02-14 18:31:00,67.0,58.0,30.03,NNE,26,0.0,-999.0,74,-99.99,,,-99.99,,2013-02-15 04:31:00,
2013-02-14 18:42:00,67.0,58.0,30.03,NNE,26,0.0,-999.0,74,-99.99,,,-99.99,,2013-02-15 04:42:00,
2013-02-14 18:51:00,66.0,59.0,30.03,NNE,27,0.0,-999.0,78,-99.99,,,-99.99,,2013-02-15 04:51:00,
2013-02-14 19:01:00,64.0,58.0,30.04,NNE,27,0.0,-999.0,82,-99.99,,,-99.99,,2013-02-15 05:01:00,
2013-02-14 19:11:00,64.0,58.0,30.04,NNE,27,0.0,-999.0,82,-99.99,,,-99.99,,2013-02-15 05:11:00,
2013-02-14 19:22:00,63.0,58.0,30.05,NNE,27,0.0,-999.0,85,-99.99,,,-99.99,,2013-02-15 05:22:00,
2013-02-14 19:32:00,62.0,58.0,30.05,NNE,27,0.0,-999.0,87,-99.99,,,-99.99,,2013-02-15 05:32:00,
2013-02-14 19:41:00,62.0,58.0,30.05,NNE,27,0.0,-999.0,87,-99.99,,,-99.99,,2013-02-15 05:41:00,
2013-02-14 19:52:00,63.0,59.0,30.05,NNE,27,0.0,-999.0,87,-99.99,,,-99.99,,2013-02-15 05:52:00,
2013-02-14 20:01:00,62.0,58.0,30.06,NNE,27,0.0,-999.0,87,-99.99,,,-99.99,,2013-02-15 06:01:00,
2013-02-14 20:11:00,62.0,58.0,30.06,NNE,27,0.0,-999.0,88,-99.99,,,-99.99,,2013-02-15 06:11:00,
2013-02-14 20:21:00,62.0,58.0,30.06,NNE,27,0.0,-999.0,88,-99.99,,,-99.99,,2013-02-15 06:21:00,
2013-02-14 20:31:00,62.0,59.0,30.07,NNE,27,0.0,-999.0,89,-99.99,,,-99.99,,2013-02-15 06:31:00,
2013-02-14 20:42:00,62.0,59.0,30.07,NNE,27,0.0,-999.0,89,-99.99,,,-99.99,,2013-02-15 06:42:00,
2013-02-14 20:51:00,62.0,59.0,30.07,NNE,27,0.0,-999.0,89,-99.99,,,-99.99,,2013-02-15 06:51:00,
2013-02-14 21:01:00,62.0,59.0,30.08,NNE,27,0.0,-999.0,89,-99.99,,,-99.99,,2013-02-15 07:01:00,
2013-02-14 21:11:00,62.0,59.0,30.08,NNE,27,0.0,-999.0,89,-99.99,,,-99.99,,2013-02-15 07:11:00,
2013-02-14 21:21:00,62.0,59.0,30.08,NNE,27,0.0,-999.0,90,-99.99,,,-99.99,,2013-02-15 07:21:00,
2013-02-14 21:31:00,62.0,59.0,30.08,NNE,27,0.0,-999.0,90,-99.99,,,-99.99,,2013-02-15 07:31:00,
2013-02-14 21:41:00,62.0,59.0,30.08,NNE,27,0.0,-999.0,90,-99.99,,,-99.99,,2013-02-15 07:41:00,
2013-02-14 21:52:00,62.0,59.0,30.08,NNE,27,0.0,-999.0,90,-99.99,,,-99.99,,2013-02-15 07:52:00,
2013-02-14 22:01:00,62.0,59.0,30.09,NNE,27,0.0,-999.0,90,-99.99,,,-99.99,,2013-02-15 08:01:00,
2013-02-14 22:11:00,62.0,59.0,30.09,NNE,27,0.0,-999.0,90,-99.99,,,-99.99,,2013-02-15 08:11:00,
2013-02-14 22:21:00,62.0,59.0,30.09,NNE,27,0.0,-999.0,91,-99.99,,,-99.99,,2013-02-15 08:21:00,
2013-02-14 22:31:00,62.0,59.0,30.09,NNE,27,0.0,-999.0,90,-99.99,,,-99.99,,2013-02-15 08:31:00,
2013-02-14 22:41:00,62.0,59.0,30.09,NNE,27,0.0,-999.0,90,-99.99,,,-99.99,,2013-02-15 08:41:00,
2013-02-14 22:52:00,62.0,59.0,30.09,NNE,27,0.0,-999.0,90,-99.99,,,-99.99,,2013-02-15 08:52:00,
2013-02-14 23:01:00,63.0,60.0,30.09,NNE,26,0.0,-999.0,90,-99.99,,,-99.99,,2013-02-15 09:01:00,
2013-02-14 23:12:00,63.0,60.0,30.09,NNE,26,0.0,-999.0,90,-99.99,,,-99.99,,2013-02-15 09:12:00,
2013-02-14 23:21:00,63.0,60.0,30.09,NNE,27,0.0,-999.0,90,-99.99,,,-99.99,,2013-02-15 09:21:00,
2013-02-14 23:31:00,63.0,60.0,30.09,NNE,27,0.0,-999.0,90,-99.99,,,-99.99,,2013-02-15 09:31:00,
2013-02-14 23:41:00,63.0,60.0,30.09,NNE,27,0.0,-999.0,90,-99.99,,,-99.99,,2013-02-15 09:41:00,
2013-02-14 23:51:00,63.0,60.0,30.09,NNE,27,0.0,-999.0,90,-99.99,,,-99.99,,2013-02-15 09:51:00,